This demonstration page uses our WeatherBlox Daily Observations layout. Learn more.

Left ArrowRight Arrow

38.20091, -84.87328

Hourly Observations for July 17, 2018

Temp ( °F °C ) Dew Point ( °F °C ) Humidity (%) Winds ( mph kmh ) Pressure ( in mb ) Visibility ( mi km ) Precip ( " mm )
12:53 am 00:53 Clear 75 23.9 72 22.2 90 90 WSW 5 7 29.92 1013 8 13 0.00 0.00
1:53 am 01:53 Partly Cloudy 76 24.4 72 22.2 88 88 W 5 7 29.91 1013 8 13 0.00 0.00
2:53 am 02:53 Mostly Cloudy 76 24.4 72 22.2 88 88 Calm 29.91 1013 8 13 0.00 0.00
3:53 am 03:53 Mostly Clear 75 23.9 72 22.2 90 90 Calm 29.91 1013 7 11 0.00 0.00
4:53 am 04:53 Mostly Clear with Mist and Fog 75 23.9 72 22.2 90 90 W 5 7 29.92 1013 5 8 0.00 0.00
5:53 am 05:53 Clear with Mist and Fog 73 22.8 71 21.7 94 94 Calm 29.93 1014 3 5 0.00 0.00
6:34 am 06:34 Sunny with Mist and Fog 73 22.8 71 21.7 94 94 Calm 29.94 1014 3 4 0.00 0.00
6:53 am 06:53 Partly Cloudy with Mist and Fog 73 22.8 71 21.7 94 94 Calm 29.94 1014 3 4 0.00 0.00
7:03 am 07:03 Partly Cloudy with Mist and Fog 73 22.8 71 21.7 94 94 NNW 3 6 29.94 1014 3 5 0.00 0.00
7:10 am 07:10 Partly Cloudy with Mist and Fog 72 22.2 71 21.7 97 97 NNW 3 6 29.94 1014 3 4 0.00 0.00
7:23 am 07:23 Partly Cloudy with Mist and Fog 73 22.8 72 22.2 96 96 NW 5 7 29.94 1014 2 2 0.00 0.00
7:36 am 07:36 Partly Cloudy with Mist and Fog 75 23.9 73 22.8 94 94 NW 5 7 29.94 1014 3 5 0.00 0.00
7:53 am 07:53 Partly Cloudy with Mist and Fog 76 24.4 73 22.8 91 91 NW 5 7 29.96 1014 5 8 0.00 0.00
8:53 am 08:53 Sunny 78 25.6 72 22.2 82 82 NNW 6 9 29.97 1015 10 16 0.00 0.00
9:53 am 09:53 Sunny 81 27.2 68 20 65 65 N 8 13 29.98 1015 10 16 0.00 0.00
10:14 am 10:14 Mostly Cloudy 81 27.2 68 20 65 65 N 7 11 29.97 1015 10 16 0.00 0.00
10:37 am 10:37 Partly Cloudy 83 28.3 69 20.6 63 63 VRB 5 7 29.97 1015 10 16 0.00 0.00
10:53 am 10:53 Sunny 83 28.3 69 20.6 63 63 WNW 3 6 29.98 1015 10 16 0.00 0.00
11:53 am 11:53 Sunny 86 30 68 20 55 55 VRB 7 11 29.98 1015 10 16 0.00 0.00
12:53 pm 12:53 Sunny 87 30.6 69 20.6 55 55 NNW 6 9 29.97 1015 10 16 0.00 0.00
1:53 pm 13:53 Mostly Sunny 88 31.1 68 20 52 52 NNW 10 17 29.97 1015 10 16 0.00 0.00
2:53 pm 14:53 Sunny 89 31.7 60 15.6 38 38 NW 9 15 29.96 1015 10 16 0.00 0.00
3:53 pm 15:53 Sunny 89 31.7 57 13.9 34 34 NNW 12 19 29.96 1015 10 16 0.00 0.00
4:53 pm 16:53 Sunny 89 31.7 56 13.3 33 33 NNW 9 15 29.95 1014 10 16 0.00 0.00
5:53 pm 17:53 Sunny 89 31.7 56 13.3 33 33 NNW 9 15 29.94 1014 10 16 0.00 0.00
6:53 pm 18:53 Sunny 87 30.6 58 14.4 37 37 N 8 13 29.95 1014 10 16 0.00 0.00
7:53 pm 19:53 Sunny 85 29.4 61 16.1 45 45 NNW 5 7 29.95 1014 10 16 0.00 0.00
8:53 pm 20:53 Sunny 80 26.7 64 17.8 58 58 NW 3 6 29.97 1015 10 16 0.00 0.00
9:53 pm 21:53 Clear 79 26.1 62 16.7 56 56 NNW 6 9 29.98 1015 10 16 0.00 0.00
10:53 pm 22:53 Clear 76 24.4 62 16.7 62 62 NNW 5 7 29.99 1016 10 16 0.00 0.00
11:53 pm 23:53 Clear 73 22.8 62 16.7 69 69 NW 3 6 30.00 1016 10 16 0.00 0.00

Powered by AerisWeather